This is the latest recevied weather packets stored in our database for station/object BV1EV-2. If no packets are shown the sender has not sent any weather packets the latest 1 day(s).
| Time | Temp. | Humidity | Pressure | Rain* | Wind** | Luminosity | Snow |
|---|---|---|---|---|---|---|---|
| 1778095067 | 27.78° C | 46% | 1009.9 hPa | - | - | - | - |
| 1778093868 | 28.33° C | 48% | 1009.8 hPa | - | - | - | - |
| 1778092668 | 28.33° C | 46% | 1009.8 hPa | - | - | - | - |
| 1778091468 | 28.33° C | 45% | 1009.8 hPa | - | - | - | - |
| 1778090268 | 28.33° C | 38% | 1010 hPa | - | - | - | - |
| 1778083068 | 29.44° C | 46% | 1010.7 hPa | - | - | - | - |
| 1778081868 | 28.89° C | 50% | 1010.9 hPa | - | - | - | - |
| 1778080668 | 28.89° C | 51% | 1011.1 hPa | - | - | - | - |
| 1778074668 | 27.78° C | 49% | 1011.3 hPa | - | - | - | - |
| 1778073468 | 27.78° C | 50% | 1011.3 hPa | - | - | - | - |
| 1778066268 | 28.89° C | 47% | 1010.9 hPa | - | - | - | - |
| 1778065068 | 28.89° C | 47% | 1010.9 hPa | - | - | - | - |
| 1778063868 | 29.44° C | 48% | 1010.7 hPa | - | - | - | - |
| 1778062668 | 29.44° C | 48% | 1010.7 hPa | - | - | - | - |
| 1778061467 | 29.44° C | 50% | 1010.6 hPa | - | - | - | - |
| 1778059068 | 29.44° C | 50% | 1010.6 hPa | - | - | - | - |
| 1778056668 | 29.44° C | 49% | 1010.5 hPa | - | - | - | - |
| 1778055468 | 29.44° C | 49% | 1010.5 hPa | - | - | - | - |
| 1778054268 | 29.44° C | 49% | 1010.7 hPa | - | - | - | - |
| 1778053067 | 29.44° C | 48% | 1010.8 hPa | - | - | - | - |
| 1778051867 | 29.44° C | 48% | 1010.8 hPa | - | - | - | - |
| 1778050667 | 29.44° C | 50% | 1010.9 hPa | - | - | - | - |
| 1778049467 | 30° C | 50% | 1010.9 hPa | - | - | - | - |
| 1778048267 | 29.44° C | 58% | 1010.9 hPa | - | - | - | - |
| 1778047067 | 28.33° C | 61% | 1011 hPa | - | - | - | - |
* Rain since midnight (hover to see other rain measurements)
** Current wind speed in m/s (hover to see current wind gust speed)